Total_Precipitation_Accumulation
1.71 1.67 1.57 1.58 1.51 1.42 1.35 1.24 1.09 0.99 0.88 0.77 0.68 0.64 0.62 0.59 0.58 0.60 0.61 0.64 0.69 0.71 0.70 0.75 0.85 0.93 1.06 1.15 1.24 1.27 1.33 1.33 1.34 1.26 1.18 1.16 1.13 1.08 1.06 0.93 0.86 0.82 0.80
1.31 1.32 1.35 1.29 1.25 1.18 1.07 0.96 0.82 0.75 0.69 0.63 0.57 0.57 0.56 0.54 0.54 0.55 0.53 0.51 0.51 0.52 0.54 0.60 0.67 0.70 0.78 0.82 0.91 0.99 1.06 1.12 1.13 1.20 1.24 1.16 1.11 1.07 0.99 0.86 0.69 0.61 0.63
1.11 1.10 1.18 1.13 1.07 0.98 0.87 0.83 0.74 0.63 0.58 0.57 0.53 0.51 0.50 0.50 0.47 0.46 0.46 0.40 0.36 0.38 0.42 0.45 0.49 0.52 0.57 0.58 0.62 0.68 0.76 0.87 1.02 1.11 1.15 1.11 1.05 0.98 0.92 0.77 0.65 0.65 0.52
0.97 0.99 1.04 1.00 0.93 0.87 0.76 0.66 0.60 0.54 0.53 0.54 0.50 0.45 0.39 0.35 0.33 0.36 0.40 0.35 0.31 0.31 0.33 0.36 0.39 0.42 0.44 0.46 0.47 0.52 0.60 0.75 0.90 0.98 0.95 0.93 0.91 0.83 0.82 0.78 0.70 0.61 0.51
0.92 0.92 0.90 0.84 0.79 0.77 0.72 0.64 0.56 0.50 0.46 0.44 0.40 0.38 0.33 0.30 0.29 0.31 0.33 0.32 0.30 0.29 0.27 0.27 0.30 0.35 0.39 0.39 0.39 0.47 0.57 0.70 0.79 0.83 0.82 0.76 0.73 0.74 0.74 0.70 0.65 0.59 0.49
0.91 0.86 0.85 0.81 0.76 0.71 0.66 0.62 0.58 0.50 0.42 0.40 0.36 0.35 0.33 0.28 0.29 0.29 0.28 0.32 0.35 0.35 0.30 0.26 0.26 0.26 0.29 0.32 0.35 0.42 0.51 0.58 0.63 0.66 0.66 0.68 0.66 0.64 0.68 0.66 0.64 0.64 0.60
0.98 0.92 0.89 0.82 0.75 0.68 0.57 0.53 0.53 0.51 0.43 0.39 0.35 0.34 0.36 0.33 0.29 0.26 0.27 0.34 0.38 0.38 0.36 0.34 0.28 0.24 0.30 0.33 0.34 0.36 0.41 0.43 0.49 0.58 0.64 0.64 0.63 0.67 0.76 0.75 0.73 0.70 0.65
1.00 0.92 0.82 0.71 0.62 0.59 0.58 0.54 0.50 0.47 0.45 0.42 0.38 0.37 0.36 0.32 0.30 0.28 0.28 0.31 0.39 0.38 0.36 0.36 0.37 0.37 0.34 0.33 0.30 0.32 0.37 0.42 0.47 0.51 0.63 0.64 0.59 0.63 0.74 0.77 0.73 0.67 0.64
0.85 0.78 0.69 0.65 0.61 0.60 0.59 0.59 0.55 0.49 0.45 0.39 0.38 0.37 0.38 0.35 0.30 0.28 0.29 0.32 0.36 0.31 0.28 0.31 0.32 0.34 0.33 0.35 0.34 0.37 0.39 0.43 0.42 0.49 0.55 0.59 0.64 0.67 0.67 0.68 0.75 0.83 0.80
0.69 0.67 0.58 0.56 0.58 0.61 0.56 0.55 0.51 0.47 0.44 0.37 0.37 0.39 0.40 0.40 0.33 0.29 0.30 0.28 0.30 0.27 0.26 0.28 0.29 0.26 0.25 0.26 0.29 0.39 0.49 0.47 0.43 0.48 0.64 0.81 0.87 0.84 0.74 0.73 0.82 0.87 0.87
0.49 0.55 0.55 0.54 0.54 0.54 0.53 0.54 0.52 0.48 0.47 0.45 0.44 0.44 0.43 0.39 0.35 0.30 0.30 0.28 0.27 0.27 0.27 0.29 0.29 0.23 0.20 0.20 0.27 0.37 0.43 0.40 0.46 0.63 0.83 0.94 0.92 0.82 0.71 0.68 0.74 0.83 0.88
0.45 0.53 0.57 0.54 0.46 0.47 0.54 0.57 0.52 0.49 0.46 0.45 0.46 0.47 0.42 0.40 0.35 0.32 0.32 0.29 0.26 0.25 0.27 0.26 0.25 0.23 0.20 0.21 0.24 0.29 0.30 0.39 0.57 0.76 0.87 0.85 0.72 0.59 0.55 0.54 0.57 0.65 0.76
0.50 0.55 0.56 0.52 0.48 0.49 0.53 0.55 0.54 0.51 0.43 0.40 0.42 0.45 0.40 0.35 0.31 0.27 0.28 0.26 0.24 0.24 0.26 0.24 0.24 0.26 0.28 0.34 0.35 0.32 0.37 0.52 0.67 0.76 0.78 0.71 0.60 0.52 0.46 0.46 0.47 0.56 0.61
0.57 0.55 0.55 0.55 0.54 0.49 0.45 0.43 0.44 0.43 0.39 0.37 0.37 0.37 0.34 0.31 0.25 0.19 0.21 0.22 0.22 0.24 0.26 0.30 0.38 0.42 0.44 0.47 0.50 0.54 0.55 0.57 0.56 0.64 0.64 0.58 0.50 0.45 0.43 0.39 0.44 0.49 0.56
0.54 0.50 0.49 0.51 0.50 0.47 0.39 0.33 0.32 0.27 0.20 0.21 0.23 0.22 0.24 0.21 0.17 0.17 0.19 0.21 0.20 0.21 0.24 0.35 0.51 0.57 0.57 0.56 0.54 0.54 0.55 0.52 0.53 0.53 0.52 0.50 0.48 0.43 0.41 0.36 0.38 0.41 0.49
0.49 0.45 0.41 0.40 0.39 0.35 0.32 0.28 0.21 0.14 0.11 0.09 0.08 0.09 0.11 0.12 0.10 0.09 0.12 0.17 0.17 0.21 0.28 0.47 0.56 0.58 0.61 0.55 0.51 0.47 0.46 0.45 0.43 0.43 0.44 0.44 0.44 0.41 0.39 0.36 0.34 0.36 0.41
0.40 0.37 0.31 0.27 0.29 0.28 0.26 0.28 0.29 0.17 0.08 0.05 0.05 0.07 0.09 0.11 0.10 0.09 0.10 0.16 0.19 0.23 0.30 0.42 0.47 0.52 0.53 0.48 0.45 0.43 0.43 0.39 0.36 0.36 0.38 0.38 0.37 0.36 0.35 0.34 0.31 0.32 0.36
0.26 0.20 0.19 0.22 0.22 0.19 0.19 0.20 0.22 0.26 0.24 0.18 0.10 0.06 0.09 0.11 0.11 0.11 0.13 0.19 0.25 0.25 0.30 0.35 0.40 0.43 0.45 0.42 0.39 0.36 0.34 0.31 0.29 0.29 0.30 0.33 0.33 0.32 0.29 0.29 0.27 0.26 0.30
0.21 0.18 0.16 0.15 0.15 0.14 0.13 0.12 0.12 0.15 0.22 0.25 0.22 0.13 0.10 0.13 0.15 0.15 0.15 0.18 0.24 0.26 0.27 0.31 0.32 0.31 0.32 0.33 0.34 0.33 0.29 0.27 0.25 0.25 0.25 0.26 0.27 0.27 0.27 0.24 0.21 0.17 0.21
0.18 0.13 0.12 0.10 0.10 0.09 0.08 0.08 0.09 0.11 0.15 0.20 0.19 0.14 0.13 0.19 0.23 0.20 0.16 0.16 0.18 0.20 0.23 0.27 0.26 0.25 0.25 0.24 0.24 0.24 0.22 0.20 0.18 0.19 0.21 0.23 0.23 0.22 0.21 0.18 0.18 0.18 0.18
0.10 0.07 0.05 0.05 0.06 0.05 0.04 0.04 0.06 0.08 0.11 0.14 0.11 0.08 0.13 0.20 0.24 0.21 0.17 0.16 0.18 0.19 0.23 0.23 0.21 0.20 0.19 0.18 0.16 0.16 0.15 0.15 0.14 0.16 0.18 0.20 0.19 0.17 0.14 0.12 0.10 0.09 0.09
0.06 0.06 0.04 0.02 0.02 0.02 0.03 0.03 0.03 0.05 0.07 0.08 0.08 0.07 0.10 0.14 0.19 0.19 0.18 0.17 0.18 0.20 0.21 0.20 0.18 0.17 0.16 0.15 0.14 0.14 0.13 0.13 0.15 0.16 0.17 0.18 0.15 0.10 0.08 0.07 0.06 0.04 0.03
0.04 0.04 0.04 0.03 0.03 0.02 0.02 0.02 0.02 0.02 0.03 0.04 0.05 0.05 0.07 0.10 0.13 0.18 0.19 0.18 0.17 0.17 0.16 0.15 0.15 0.14 0.13 0.12 0.11 0.11 0.11 0.11 0.12 0.13 0.16 0.15 0.11 0.07 0.06 0.05 0.04 0.03 0.02
0.02 0.02 0.02 0.03 0.03 0.03 0.02 0.02 0.02 0.01 0.02 0.03 0.04 0.05 0.06 0.08 0.10 0.15 0.21 0.21 0.18 0.15 0.13 0.11 0.10 0.10 0.10 0.08 0.07 0.06 0.06 0.06 0.07 0.10 0.13 0.12 0.08 0.05 0.04 0.03 0.03 0.03 0.03
0.01 0.01 0.01 0.02 0.02 0.02 0.02 0.01 0.02 0.01 0.01 0.02 0.03 0.04 0.05 0.04 0.05 0.10 0.15 0.20 0.19 0.15 0.11 0.08 0.07 0.06 0.07 0.06 0.05 0.03 0.04 0.04 0.04 0.06 0.11 0.11 0.07 0.04 0.04 0.03 0.03 0.03 0.04
0.01 0.01 0.01 0.01 0.01 0.01 0.01 0.01 0.02 0.02 0.02 0.01 0.02 0.03 0.03 0.03 0.04 0.05 0.08 0.12 0.15 0.15 0.11 0.08 0.06 0.04 0.03 0.03 0.03 0.02 0.02 0.03 0.03 0.04 0.08 0.10 0.07 0.05 0.04 0.04 0.04 0.03 0.04